Location: Dumpton Point
(51.3500°N, 1.4433°E)
Time: 07:52:23
(UTC+00:00)

Envisat - Pass Details

Date: 16 December 2021
Orbit: 764 x 766 km, 98.2° (Epoch: 25 January)

Event Time Altitude Azimuth Distance (km) Brightness Sun altitude
Rises 17:44:49 0° 227° (SW) 3,226 7.4 -17.2°
Reaches altitude 10° 17:49:28 10° 266° (W) 2,308 6.7 -17.9°
Maximum altitude 17:50:26 11° 277° (W) 2,275 6.5 -18.1°
Drops below altitude 10° 17:51:25 10° 289° (WNW) 2,311 6.3 -18.2°
Sets 17:56:07 0° 328° (NNW) 3,246 6.5 -18.9°
